This demonstration page uses our WeatherBlox Daily Observations layout. Learn more.

Left ArrowRight Arrow

41.12389, -100.76542

Hourly Observations for July 5, 2022

Temp ( °F °C ) Dew Point ( °F °C ) Humidity (%) Winds ( mph kmh ) Pressure ( in mb ) Visibility ( mi km ) Precip ( " mm )
12:53 am 00:53 Partly Cloudy 74 23.3 68 20 82 82 SSE 3 6 29.79 1009 10 16 0.00 0.00
1:53 am 01:53 Clear 72 22.2 67 19.4 84 84 Calm 29.78 1008 10 16 0.00 0.00
2:53 am 02:53 Clear 70 21.1 66 18.9 87 87 ENE 3 6 29.76 1008 10 16 0.00 0.00
3:53 am 03:53 Clear 68 20 65 18.3 90 90 SE 3 6 29.76 1008 10 16 0.00 0.00
4:53 am 04:53 Clear 69 20.6 66 18.9 90 90 ESE 6 9 29.78 1008 10 16 0.00 0.00
5:53 am 05:53 Clear 70 21.1 64 17.8 82 82 ENE 3 6 29.77 1008 10 16 0.00 0.00
6:53 am 06:53 Sunny 71 21.7 65 18.3 81 81 W 6 9 29.78 1008 10 16 0.00 0.00
7:53 am 07:53 Sunny 76 24.4 67 19.4 74 74 Calm 29.79 1009 10 16 0.00 0.00
8:53 am 08:53 Sunny 82 27.8 67 19.4 60 60 NNW 3 6 29.79 1009 10 16 0.00 0.00
9:53 am 09:53 Sunny 86 30 64 17.8 48 48 VRB 5 7 29.78 1009 10 16 0.00 0.00
10:53 am 10:53 Sunny 90 32.2 63 17.2 41 41 ESE 10 17 29.78 1009 10 16 0.00 0.00
11:53 am 11:53 Sunny 92 33.3 69 20.6 47 47 E 10 17 29.78 1009 10 16 0.00 0.00
12:53 pm 12:53 Sunny 94 34.4 68 20 43 43 ESE 10 17 29.78 1008 10 16 0.00 0.00
1:53 pm 13:53 Sunny 96 35.6 69 20.6 41 41 E 8 13 29.77 1008 10 16 0.00 0.00
2:53 pm 14:53 Sunny 100 37.8 63 17.2 30 30 SSE 6 9 29.75 1007 10 16 0.00 0.00
3:53 pm 15:53 Sunny 100 37.8 64 17.8 31 31 E 9 15 29.73 1007 10 16 0.00 0.00
4:53 pm 16:53 Sunny 99 37.2 65 18.3 33 33 E 13 20 29.72 1007 10 16 0.00 0.00
5:53 pm 17:53 Partly Cloudy 83 28.3 64 17.8 53 53 NE 29 46 29.78 1009 10 16 0.00 0.00
6:53 pm 18:53 Sunny 81 27.2 64 17.8 57 57 ENE 25 41 29.77 1008 10 16 0.00 0.00
7:53 pm 19:53 Sunny 79 26.1 65 18.3 62 62 ENE 16 26 29.78 1009 10 16 0.00 0.00
8:53 pm 20:53 Sunny 78 25.6 65 18.3 64 64 E 12 19 29.77 1008 10 16 0.00 0.00
9:50 pm 21:50 Mostly Cloudy with Nearby Thunderstorms 77 25 64 18 65 65 NW 8 13 29.80 1009 10 16 0.00 0.00
9:53 pm 21:53 Mostly Cloudy with Nearby Thunderstorms 78 25.6 65 18.3 64 64 NW 7 11 29.87 1012 10 16 0.00 0.00
10:12 pm 22:12 Cloudy with Thunderstorms 75 23.9 67 19.4 76 76 W 16 26 29.84 1011 8 13 0.02 0.51
10:50 pm 22:50 Cloudy with Nearby Thunderstorms 72 22 70 21 94 94 WNW 22 35 29.89 1012 10 16 0.06 1.52
10:53 pm 22:53 Cloudy with Nearby Thunderstorms 72 22.2 69 20.6 91 91 WNW 17 28 29.93 1014 10 16 0.06 1.52
11:10 pm 23:10 Cloudy with Thunderstorms 71 21.7 68 20 90 90 NW 8 13 29.92 1013 10 16 0.00 0.00
11:53 pm 23:53 Cloudy with Light Rain 71 21.7 65 18.3 81 81 N 13 20 29.91 1013 10 16 0.09 2.29

Powered by AerisWeather